Weather History for Sacramento, CA

Change the Weather History Date:

Thursday, November 8, 2012

  Actual Average Record
Temperature  
Mean Temperature 54 °F -  
Max Temperature 60 °F 67 °F 81 °F (1955)
Min Temperature 48 °F 45 °F 35 °F (2011)
Degree Days  
Heating Degree Days 11    
Cooling Degree Days 0    
Growing Degree Days 2 (Base 50)    
Moisture  
Dew Point 42 °F    
Average Humidity 70    
Maximum Humidity 83    
Minimum Humidity 42    
Precipitation  
Precipitation 0.06 in 0.06 in 1.01 in (1954)
Month to date precipitation 0.23 0.46  
Year to date precipitation 11.26 13.65  
Since 1 July precipitation 1.40 1.75  
Sea Level Pressure  
Sea Level Pressure 29.88 in    
Wind  
Wind Speed 10 mph (SSW)    
Max Wind Speed 22 mph    
Max Gust Speed 28 mph    
Visibility 10 miles    
Events Rain    
T = Trace of Precipitation, MM = Missing Value Source: NWS Daily Summary

Daily Weather History Graph

Daily Weather History Graph

Search for Another Location

Airport:

Trip Planner

Search our weather history database for the weather conditions in past years. The results will help you decide how hot, cold, wet, or windy it might be!

Date:

Astronomy

Nov. 08, 2012 Rise Set
Actual Time 6:40 AM PST 4:58 PM PST
Civil Twilight 6:12 AM PST 5:26 PM PST
Nautical Twilight 5:41 AM PST 5:57 PM PST
Astronomical Twilight 5:09 AM PST 6:29 PM PST
Moon 12:45 AM PST (11/8) 1:38 PM PST (11/8)
Length of Visible Light 11h 13m
Length of Day
10h 17m
Waning Crescent, 32% of the Moon is Illuminated
Nov 8
Waning Crescent
Nov 13
New
Nov 20
First Quarter
Nov 28
Full
Dec 6
Last Quarter

Hourly Weather History & Observations

Time (PST) Temp. Windchill Dew Point Humidity Pressure Visibility Wind Dir Wind Speed Gust Speed Precip Events Conditions
12:53 AM 55.0 °F - 48.0 °F 77% 29.85 in 10.0 mi South 11.5 mph 18.4 mph N/A   Clear
1:37 AM 55.4 °F - 48.2 °F 77% 29.84 in 10.0 mi SSW 9.2 mph 23.0 mph N/A   Mostly Cloudy
1:44 AM 55.4 °F - 48.2 °F 77% 29.84 in 10.0 mi SSW 11.5 mph 19.6 mph N/A   Scattered Clouds
1:53 AM 55.0 °F - 46.9 °F 74% 29.84 in 10.0 mi SSW 11.5 mph 19.6 mph N/A   Partly Cloudy
2:53 AM 54.0 °F - 46.9 °F 77% 29.84 in 10.0 mi South 12.7 mph 23.0 mph N/A   Clear
3:53 AM 52.0 °F - 44.1 °F 74% 29.84 in 10.0 mi South 10.4 mph 18.4 mph N/A   Partly Cloudy
4:53 AM 50.0 °F - 42.1 °F 74% 29.86 in 10.0 mi SSW 9.2 mph 17.3 mph N/A   Clear
5:53 AM 48.9 °F - 42.1 °F 77% 29.87 in 10.0 mi SSW 10.4 mph - N/A   Clear
6:53 AM 48.9 °F - 41.0 °F 74% 29.89 in 10.0 mi South 6.9 mph - N/A   Clear
7:53 AM 51.1 °F - 39.9 °F 66% 29.92 in 10.0 mi Variable 6.9 mph - N/A   Clear
8:53 AM 54.0 °F - 37.9 °F 55% 29.92 in 10.0 mi SSW 13.8 mph 21.9 mph N/A   Clear
9:53 AM 57.0 °F - 37.0 °F 47% 29.93 in 10.0 mi SW 11.5 mph - N/A   Clear
10:53 AM 59.0 °F - 36.0 °F 42% 29.93 in 10.0 mi WSW 13.8 mph - N/A   Clear
11:53 AM 60.1 °F - 39.0 °F 46% 29.91 in 10.0 mi SW 12.7 mph 18.4 mph N/A   Mostly Cloudy
12:53 PM 57.9 °F - 39.9 °F 51% 29.89 in 10.0 mi WSW 15.0 mph 21.9 mph N/A   Overcast
1:53 PM 52.0 °F - 46.0 °F 80% 29.89 in 4.0 mi WSW 12.7 mph 21.9 mph 0.01 in Rain Rain
2:53 PM 53.1 °F - 48.0 °F 83% 29.87 in 10.0 mi SSW 5.8 mph - 0.05 in Rain Light Rain
3:53 PM 53.1 °F - 48.0 °F 83% 29.88 in 10.0 mi SSW 6.9 mph - 0.00 in   Scattered Clouds
4:53 PM 53.1 °F - 45.0 °F 74% 29.86 in 10.0 mi SSW 8.1 mph 16.1 mph N/A   Partly Cloudy
5:53 PM 52.0 °F - 43.0 °F 71% 29.86 in 10.0 mi SSW 8.1 mph - N/A   Clear
6:53 PM 50.0 °F - 42.1 °F 74% 29.86 in 10.0 mi SW 5.8 mph - N/A   Clear
7:53 PM 48.0 °F - 39.0 °F 71% 29.87 in 10.0 mi WSW 9.2 mph - N/A   Clear
8:53 PM 46.9 °F - 39.0 °F 74% 29.88 in 10.0 mi SW 5.8 mph - N/A   Clear
9:53 PM 46.0 °F 41.4 °F 37.9 °F 73% 29.89 in 10.0 mi SW 9.2 mph - N/A   Clear
10:53 PM 45.0 °F 41.2 °F 37.9 °F 76% 29.90 in 10.0 mi SSW 6.9 mph - N/A   Clear
11:53 PM 44.1 °F 40.8 °F 37.0 °F 76% 29.91 in 10.0 mi SSW 5.8 mph - N/A   Clear